STARLINK-5495, 55635

Orbit data source: Space-Track

STARLINK-5495, 55635 is a payload satellite owned by SpaceX/Seattle (US) in LEO that was launched on Fri, 17 Feb 2023 UTC via an FALCON 9 launch vehicle from the Air Force Western Test Range (AFWTR). Payload-class satellites include a variety of spacecraft equipped with specific instruments for various scientific and technological missions. These include communications satellites like Starlink; space stations such as the ISS; scientific satellites like the Hubble; Earth observation satellites from companies like Planet Labs, Umbra, and HawkEye 360; GPS; miniature CubeSats for education and research; and military/defense satellites.

Loading next visibility...
Identifier
55635, 2023-021H
Orbit
LEO
Country
Flag of USUS
Related business
Manufacturer
SpaceX/Seattle
Mission
Operational Commercial Communications
Bus & Motor
STARLINK, Unknown motor
Mass
305 kg wet, ~290 kg dry
Launch date (UTC)
2023-02-17 (3 years ago)
Launch vehicle
FALCON 9
Launch site
Air Force Western Test Range (AFWTR)
Object type
Payload
Rocket body
Debris
Shape & HBR
Box + 1 Pan, 10.1 m
Radar Cross Section
13.562 m², Large (>1 m²)

Expand to show TLE details & history
Last TLE update: 2 days ago

TLE from 2 days ago
0 STARLINK-5495
1 55635U 23021H   26171.45002088  .00000024  00000-0  97695-5 0  9993
2 55635  69.9991 285.3708 0003149 268.1625  91.9174 14.98327501184182
Epoch: 2026-06-20T10:48Z
TLE epoch observation values (Epoch: 2026-06-20T10:48:01.804Z)
Latitude
0.00006°
Longitude
-145.30117°
Altitude
574.561 km
Speed
7.574 km/s
True Right ascension
19h 01m 28s
True Declination
0° 00' 00"
Sunlit
Object was in full shadow at epoch
Visualization orbit readout
Latitude
Unknown
Longitude
Unknown
Altitude
Unknown
Speed
Unknown
Apparent Right ascension
Unknown
Apparent Declination
Unknown
Sunlit
N/A
Visualization observer readout
Local Sidereal Time
21:42:04
Azimuth
Unknown
Elevation
Unknown
Doppler factor
Unknown
Orbital elements
Apogee altitude
572.2 km
Perigee altitude
567.824 km
Semi-major axis
6,948.149 km
Eccentricity
0.00031
Inclination
69.9991°
RAAN
285.3708°
Arg. of periapsis
268.1625°
True anomaly
91.95346°
Mean anomaly
91.9174°
Eccentric anomaly
91.93543°
Mean motion
3.74748 °/min
Orbital period
96.06 mins
BSTAR
0.0000097695
Loading maneuver chart data...
Computing Atmospheric mass density...

Documentation

Showing up to 5 results
|